Home   Weather   Arth   Past weeks

Flag for Switzerland Past Weather in Arth, Schwyz, Switzerland — Yesterday and Last 2 Weeks

Now
47 °F

Cool.


Feels Like: 47 °F
Forecast: 34 / 39 °F
Wind: 1 mph from East

Location: Altdorf

Current Time: Feb 21, 2017 at 3:41:12 pm

Latest Report: Feb 21, 2017 at 2:00 pm


Visibility: N/A

Pressure: 30.18 "Hg

Humidity: 92%

Dew Point: 45 °F

Location of ArthLocation

Past Weather in Arth — Graph

°F

Arth Temperature Yesterday

Maximum temperature yesterday: 52 °F (at 3:00 pm)
Minimum temperature yesterday: 30 °F (at 8:00 am)
Average temperature yesterday: 41 °F

High & Low Weather Summary for the Past Weeks

 TemperatureHumidityPressure
High58 °F (Feb 12, 3:00 pm)97% (Feb 9, 12:00 am)30.65 "Hg (Feb 9, 12:00 am)
Low25 °F (Feb 19, 7:00 am)30% (Feb 12, 2:00 pm)30.03 "Hg (Feb 7, 4:00 pm)
Average38 °F81%30.28 "Hg
* Reported Feb 6 2:00 pm — Feb 21 2:00 pm, Arth, Weather by CustomWeather, © 2017

Note: Actual official high and low records may vary slightly from our data, if they occured in-between our weather recording intervals... More about our weather records

Advertising

Arth Weather History for the Previous 24 Hours

Scroll right to see more
 ConditionsComfort  
Time TempWeatherWind HumidityBarometerVisibility
2:00 pm
Tue, Feb 21
47 °FCool.1 mph92%30.18 "HgN/A
1:00 pm46 °FDrizzle. Overcast.6 mph90%30.19 "Hg3 mi
12:00 pm47 °FCool.2 mph89%30.19 "HgN/A
11:00 am45 °FQuite cool.2 mph93%30.22 "HgN/A
10:00 am45 °FDrizzle. Overcast.2 mph88%30.20 "Hg9 mi
9:00 am44 °FQuite cool.2 mph91%30.20 "HgN/A
8:00 am43 °FQuite cool.2 mph89%30.22 "HgN/A
7:00 am43 °FDrizzle. Overcast.2 mph85%30.19 "Hg6 mi
6:00 am44 °FQuite cool.6 mph83%30.19 "HgN/A
5:00 am44 °FQuite cool.3 mph77%30.21 "HgN/A
4:00 am42 °FDrizzle. Overcast.1 mph84%30.23 "Hg12 mi
3:00 am42 °FQuite cool.2 mph78%30.24 "HgN/A
2:00 am44 °FQuite cool.3 mph71%30.25 "HgN/A
1:00 am44 °FOvercast.3 mph68%30.27 "Hg12 mi
12:00 am43 °FQuite cool.1 mph70%30.26 "HgN/A
11:00 pm
Mon, Feb 20
43 °FQuite cool.5 mph69%30.26 "HgN/A
10:00 pm44 °FOvercast.1 mph62%30.26 "Hg12 mi
9:00 pm44 °FQuite cool.2 mph66%30.26 "HgN/A
8:00 pm44 °FQuite cool.6 mph68%30.26 "HgN/A
7:00 pm46 °FPassing clouds.2 mph63%30.25 "Hg12 mi
6:00 pm47 °FCool.1 mph59%30.22 "HgN/A
5:00 pm49 °FCool.2 mph48%30.21 "HgN/A
4:00 pm50 °FPartly sunny.2 mph52%30.21 "Hg16 mi
3:00 pm52 °FCool.3 mph46%30.21 "HgN/A
Weather by CustomWeather, © 2017

See weather overviewHow to use our weather pages